GER24M EDDH-LEPA

Flight info

Callsign GER24M
Flight time 1h 27m
Altitude 23000
Route IDEKO7G IDEKO N850 PIROT/N0439F370 N850 XAROL/N0444F380 DCT BOMBI DCT GIGET DCT ABUKA DCT KRH DCT NATOR/N0438F370 DCT LUTIX DCT BENOT DCT NEMOS DCT GEVEA DCT INCUS DCT BALSI DCT RETNO DCT TUPOX DCT MTG DCT DIVKO DCT VATIR N852 VERSO L129 LUNIK
Aircraft A20N/M-SDE2E3FGHIRWXY/LB1

Departure

Time 2026-04-26 16:58
Airport Hamburg Helmut Schmidt Airport (EDDH)

Arrival

Time 2026-04-26 18:25
Airport Palma de Mallorca Airport (LEPA)
Time Latitude Longitude Altitude Speed Heading
2026-04-26 16:07 53.63247 10.00358 49 ft 0 kts 88°
2026-04-26 16:42 53.63247 10.00350 49 ft 3 kts 88°
2026-04-26 16:43 53.63245 10.00305 49 ft 4 kts 88°
2026-04-26 16:43 53.63244 10.00266 49 ft 4 kts 90°
2026-04-26 16:43 53.63247 10.00223 49 ft 4 kts 114°
2026-04-26 16:43 53.63262 10.00187 45 ft 4 kts 146°
2026-04-26 16:44 53.63286 10.00169 45 ft 4 kts 171°
2026-04-26 16:44 53.63313 10.00166 45 ft 4 kts 181°
2026-04-26 16:44 53.63333 10.00166 47 ft 0 kts 175°
2026-04-26 16:47 53.63330 10.00167 47 ft 2 kts 175°
2026-04-26 16:48 53.63289 10.00172 45 ft 10 kts 175°
2026-04-26 16:48 53.63196 10.00184 48 ft 16 kts 175°
2026-04-26 16:48 53.63090 10.00194 47 ft 14 kts 189°
2026-04-26 16:48 53.63006 10.00116 46 ft 14 kts 213°
2026-04-26 16:49 53.62970 10.00077 45 ft 1 kts 212°
2026-04-26 16:49 53.62961 10.00067 44 ft 0 kts 216°
2026-04-26 16:50 53.62960 10.00066 44 ft 1 kts 216°
2026-04-26 16:50 53.62936 10.00032 45 ft 8 kts 226°
2026-04-26 16:50 53.62903 9.99934 44 ft 8 kts 243°
2026-04-26 16:50 53.62893 9.99899 42 ft 0 kts 243°
2026-04-26 16:54 53.62884 9.99869 44 ft 7 kts 243°
2026-04-26 16:55 53.62867 9.99767 46 ft 10 kts 283°
2026-04-26 16:55 53.62912 9.99704 47 ft 0 kts 332°
2026-04-26 16:56 53.62914 9.99702 47 ft 2 kts 332°
2026-04-26 16:57 53.63115 9.99526 48 ft 65 kts 333°
2026-04-26 16:57 53.63674 9.99045 49 ft 116 kts 333°
2026-04-26 16:57 53.65504 9.97480 569 ft 159 kts 332°
2026-04-26 16:58 53.66493 9.96706 1482 ft 152 kts 332°
2026-04-26 16:58 53.66822 9.96470 1714 ft 152 kts 332°
2026-04-26 16:58 53.69523 9.94115 3089 ft 179 kts 328°
2026-04-26 16:59 53.70527 9.92864 3627 ft 180 kts 311°
2026-04-26 16:59 53.71315 9.88815 4612 ft 196 kts 269°
2026-04-26 17:00 53.70443 9.84169 5655 ft 223 kts 259°
2026-04-26 17:00 53.69397 9.78933 6888 ft 246 kts 259°
2026-04-26 17:00 53.68846 9.76171 7485 ft 249 kts 259°
2026-04-26 17:01 53.68293 9.73406 8091 ft 249 kts 259°
2026-04-26 17:01 53.67744 9.70635 8698 ft 250 kts 260°
2026-04-26 17:01 53.67195 9.67847 9322 ft 251 kts 260°
2026-04-26 17:01 53.66643 9.65045 9963 ft 253 kts 260°
2026-04-26 17:02 53.66079 9.62212 10560 ft 259 kts 258°
2026-04-26 17:02 53.65085 9.59524 11141 ft 287 kts 235°
2026-04-26 17:02 53.63347 9.57560 11703 ft 319 kts 211°
2026-04-26 17:02 53.61891 9.56878 12076 ft 336 kts 199°
2026-04-26 17:03 53.58693 9.56247 12837 ft 354 kts 192°
2026-04-26 17:03 53.56204 9.55927 13421 ft 363 kts 192°
2026-04-26 17:03 53.53661 9.55561 14002 ft 370 kts 193°
2026-04-26 17:03 53.51107 9.55130 14551 ft 376 kts 193°
2026-04-26 17:04 53.48491 9.54647 15122 ft 381 kts 193°
2026-04-26 17:04 53.45834 9.54131 15691 ft 387 kts 194°
2026-04-26 17:04 53.43147 9.53601 16240 ft 391 kts 194°
2026-04-26 17:04 53.40429 9.53063 16794 ft 395 kts 194°
2026-04-26 17:05 53.37687 9.52522 17359 ft 398 kts 193°
2026-04-26 17:05 53.34920 9.51978 17942 ft 402 kts 193°
2026-04-26 17:05 53.32133 9.51430 18525 ft 406 kts 193°
2026-04-26 17:05 53.29314 9.50877 19048 ft 409 kts 193°
2026-04-26 17:06 53.26521 9.50329 19545 ft 411 kts 193°
2026-04-26 17:06 53.23672 9.49771 20090 ft 414 kts 193°
2026-04-26 17:06 53.20806 9.49211 20627 ft 416 kts 193°
2026-04-26 17:06 53.17920 9.48647 21177 ft 418 kts 193°
2026-04-26 17:07 53.15027 9.48083 21734 ft 420 kts 193°
2026-04-26 17:07 53.12121 9.47518 22303 ft 421 kts 193°
2026-04-26 17:07 53.09207 9.46953 22889 ft 422 kts 192°
2026-04-26 17:07 53.06293 9.46388 23469 ft 422 kts 192°
2026-04-26 17:08 53.03376 9.45823 24040 ft 423 kts 192°
2026-04-26 17:08 53.00448 9.45255 24450 ft 425 kts 192°
2026-04-26 17:08 52.97540 9.44683 24865 ft 427 kts 193°
2026-04-26 17:08 52.94592 9.44056 25292 ft 428 kts 193°
2026-04-26 17:09 52.91632 9.43410 25721 ft 429 kts 193°
2026-04-26 17:09 52.89671 9.42982 26012 ft 430 kts 193°
2026-04-26 17:09 52.85688 9.42120 26522 ft 434 kts 193°
2026-04-26 17:09 52.82683 9.41475 26863 ft 437 kts 193°
2026-04-26 17:10 52.79660 9.40829 27234 ft 439 kts 193°
2026-04-26 17:10 52.76622 9.40183 27597 ft 441 kts 192°
2026-04-26 17:10 52.73607 9.39543 27954 ft 443 kts 192°
2026-04-26 17:10 52.70546 9.38895 28349 ft 444 kts 192°
2026-04-26 17:11 52.67481 9.38248 28779 ft 444 kts 192°
2026-04-26 17:11 52.64418 9.37601 29217 ft 443 kts 192°
2026-04-26 17:11 52.61363 9.36950 29627 ft 443 kts 193°
2026-04-26 17:11 52.58311 9.36186 29963 ft 443 kts 194°
2026-04-26 17:12 52.51793 9.34410 30640 ft 446 kts 194°
2026-04-26 17:12 52.39469 9.31149 31816 ft 449 kts 193°
2026-04-26 17:13 52.14825 9.25316 33896 ft 456 kts 190°
2026-04-26 17:13 52.02169 9.23024 34698 ft 457 kts 194°
2026-04-26 17:13 51.77034 9.16782 36254 ft 455 kts 192°
2026-04-26 17:14 51.66823 9.14597 36911 ft 450 kts 193°
2026-04-26 17:14 51.57514 9.12587 37262 ft 452 kts 192°
2026-04-26 17:14 51.51053 9.11191 37253 ft 458 kts 194°
2026-04-26 17:15 51.14239 9.01147 37230 ft 459 kts 192°
2026-04-26 17:16 51.03794 8.99071 37221 ft 458 kts 191°
2026-04-26 17:16 50.91019 8.96537 37243 ft 455 kts 190°
2026-04-26 17:17 50.65863 8.91606 37237 ft 455 kts 190°
2026-04-26 17:17 50.51989 8.88912 37234 ft 455 kts 190°
2026-04-26 17:18 50.28466 8.84379 37221 ft 456 kts 190°
2026-04-26 17:18 50.17429 8.82267 37237 ft 456 kts 190°
2026-04-26 17:19 50.07991 8.80468 37238 ft 456 kts 190°
2026-04-26 17:19 50.01700 8.79234 37233 ft 455 kts 191°
2026-04-26 17:20 49.97544 8.78357 37233 ft 455 kts 191°
2026-04-26 17:20 49.89189 8.76603 37226 ft 455 kts 190°
2026-04-26 17:21 49.67423 8.72118 37196 ft 455 kts 190°
2026-04-26 17:21 49.42345 8.67077 37220 ft 454 kts 190°
2026-04-26 17:22 49.36580 8.65907 37220 ft 455 kts 190°
2026-04-26 17:22 49.10252 8.60613 37210 ft 455 kts 190°
2026-04-26 17:23 48.94112 8.56754 37193 ft 453 kts 195°
2026-04-26 17:23 48.73605 8.50120 37178 ft 453 kts 194°
2026-04-26 17:24 48.44712 8.40885 37213 ft 454 kts 194°
2026-04-26 17:24 48.21082 8.33397 37200 ft 453 kts 197°
2026-04-26 17:25 48.15248 8.30212 37196 ft 448 kts 210°
2026-04-26 17:25 48.09956 8.25362 37191 ft 446 kts 216°
2026-04-26 17:26 48.04753 8.20309 37180 ft 446 kts 216°
2026-04-26 17:26 47.99539 8.15291 37190 ft 446 kts 216°
2026-04-26 17:27 47.94350 8.10315 37187 ft 446 kts 216°
2026-04-26 17:27 47.89122 8.05314 37181 ft 446 kts 215°
2026-04-26 17:28 47.84776 8.01165 37177 ft 447 kts 216°
2026-04-26 17:28 47.78656 7.95336 37173 ft 447 kts 215°
2026-04-26 17:29 47.74306 7.91203 37169 ft 447 kts 215°
2026-04-26 17:29 47.68214 7.85428 37163 ft 447 kts 215°
2026-04-26 17:30 47.62970 7.80472 37159 ft 447 kts 215°
2026-04-26 17:30 47.57722 7.75523 37161 ft 447 kts 215°
2026-04-26 17:31 47.53356 7.71414 37155 ft 447 kts 215°
2026-04-26 17:31 47.47232 7.65665 37158 ft 447 kts 215°
2026-04-26 17:32 47.42009 7.60775 37153 ft 448 kts 215°
2026-04-26 17:32 47.36747 7.55861 37155 ft 447 kts 215°
2026-04-26 17:33 47.31483 7.50956 37155 ft 448 kts 215°
2026-04-26 17:34 47.23619 7.43651 37149 ft 447 kts 215°
2026-04-26 17:34 47.18406 7.38650 37155 ft 446 kts 220°
2026-04-26 17:35 47.13950 7.32410 37157 ft 441 kts 233°
2026-04-26 17:35 47.10145 7.25350 37153 ft 441 kts 234°
2026-04-26 17:36 47.06321 7.18296 37157 ft 442 kts 234°
2026-04-26 17:36 47.02510 7.11306 37174 ft 442 kts 234°
2026-04-26 17:37 46.98663 7.04269 37158 ft 443 kts 234°
2026-04-26 17:37 46.94807 6.97235 37155 ft 443 kts 234°
2026-04-26 17:38 46.89283 6.88339 37155 ft 448 kts 222°
2026-04-26 17:38 46.83659 6.81662 37155 ft 448 kts 222°
2026-04-26 17:39 46.78820 6.75907 37154 ft 448 kts 222°
2026-04-26 17:39 46.73982 6.70162 37154 ft 448 kts 222°
2026-04-26 17:40 46.70780 6.66368 37150 ft 448 kts 221°
2026-04-26 17:40 46.64332 6.58747 37149 ft 448 kts 221°
2026-04-26 17:41 46.59484 6.53032 37146 ft 449 kts 221°
2026-04-26 17:41 46.54634 6.47329 37140 ft 449 kts 221°
2026-04-26 17:42 46.49780 6.41634 37138 ft 449 kts 221°
2026-04-26 17:42 46.44949 6.35980 37139 ft 449 kts 221°
2026-04-26 17:43 46.40083 6.30298 37133 ft 449 kts 221°
2026-04-26 17:43 46.35211 6.24624 37131 ft 449 kts 221°
2026-04-26 17:44 46.30335 6.18957 37128 ft 450 kts 221°
2026-04-26 17:44 46.25077 6.14044 37130 ft 455 kts 205°
2026-04-26 17:45 46.18982 6.11765 37130 ft 459 kts 190°
2026-04-26 17:45 46.12673 6.10392 37130 ft 458 kts 190°
2026-04-26 17:46 46.06380 6.08998 37130 ft 457 kts 190°
2026-04-26 17:46 46.00099 6.07607 37127 ft 456 kts 190°
2026-04-26 17:47 45.95943 6.06688 37127 ft 456 kts 190°
2026-04-26 17:47 45.75038 6.02075 37102 ft 454 kts 190°
2026-04-26 17:48 45.50116 5.96602 37096 ft 452 kts 190°
2026-04-26 17:48 45.25590 5.89170 37114 ft 450 kts 194°
2026-04-26 17:49 45.01322 5.81660 37190 ft 449 kts 194°
2026-04-26 17:49 44.76938 5.74179 37175 ft 447 kts 194°
2026-04-26 17:50 44.52629 5.66783 37154 ft 447 kts 194°
2026-04-26 17:50 44.28814 5.57322 37138 ft 444 kts 203°
2026-04-26 17:51 44.09360 5.46701 37131 ft 444 kts 203°
2026-04-26 17:51 44.03642 5.43594 37129 ft 444 kts 203°
2026-04-26 17:52 43.98825 5.40981 37122 ft 444 kts 203°
2026-04-26 17:52 43.90753 5.36611 37121 ft 444 kts 203°
2026-04-26 17:53 43.63884 5.22151 37113 ft 443 kts 203°
2026-04-26 17:54 43.30670 5.01181 37101 ft 438 kts 217°
2026-04-26 17:54 43.13942 4.85478 37096 ft 438 kts 217°
2026-04-26 17:55 42.89462 4.65452 37131 ft 440 kts 212°
2026-04-26 17:55 42.71630 4.52015 37120 ft 440 kts 212°
2026-04-26 17:56 42.46697 4.33374 37101 ft 440 kts 211°
2026-04-26 17:57 42.18334 4.12376 37095 ft 440 kts 211°
2026-04-26 17:57 42.12996 4.08450 37137 ft 440 kts 211°
2026-04-26 17:58 41.96859 3.96637 37129 ft 440 kts 210°
2026-04-26 17:59 41.91222 3.93380 37128 ft 443 kts 199°
2026-04-26 17:59 41.88224 3.92374 37132 ft 445 kts 192°
2026-04-26 17:59 41.71457 3.88532 37131 ft 445 kts 192°
2026-04-26 18:00 41.62415 3.86449 37131 ft 445 kts 192°
2026-04-26 18:00 41.56317 3.85048 37131 ft 445 kts 192°
2026-04-26 18:01 41.50221 3.83650 37129 ft 444 kts 192°
2026-04-26 18:01 41.44166 3.82264 37127 ft 444 kts 191°
2026-04-26 18:02 41.39099 3.81107 37119 ft 444 kts 191°
2026-04-26 18:02 41.31972 3.79481 36922 ft 445 kts 191°
2026-04-26 18:03 41.28916 3.78785 36468 ft 446 kts 191°
2026-04-26 18:03 41.25858 3.78090 35897 ft 445 kts 191°
2026-04-26 18:03 41.22808 3.77397 35343 ft 444 kts 191°
2026-04-26 18:03 41.19805 3.76715 34812 ft 443 kts 191°
2026-04-26 18:04 41.16772 3.75995 34281 ft 443 kts 194°
2026-04-26 18:04 41.13802 3.74919 33650 ft 443 kts 200°
2026-04-26 18:04 41.10916 3.73462 33003 ft 445 kts 203°
2026-04-26 18:05 41.05129 3.70450 31720 ft 449 kts 202°
2026-04-26 18:05 41.02212 3.68943 31096 ft 450 kts 202°
2026-04-26 18:05 40.99328 3.67458 30474 ft 452 kts 202°
2026-04-26 18:05 40.96403 3.65955 29788 ft 450 kts 202°
2026-04-26 18:06 40.93488 3.64458 29066 ft 448 kts 202°
2026-04-26 18:06 40.90591 3.62973 28355 ft 445 kts 202°
2026-04-26 18:06 40.87710 3.61496 27678 ft 443 kts 202°
2026-04-26 18:06 40.84847 3.60030 27004 ft 440 kts 202°
2026-04-26 18:07 40.81995 3.58571 26359 ft 438 kts 201°
2026-04-26 18:07 40.79166 3.57126 25712 ft 435 kts 201°
2026-04-26 18:07 40.76353 3.55689 25109 ft 432 kts 201°
2026-04-26 18:07 40.74500 3.54743 24735 ft 430 kts 201°
2026-04-26 18:08 40.70824 3.52869 24011 ft 426 kts 201°
2026-04-26 18:08 40.68070 3.51466 23404 ft 422 kts 201°
2026-04-26 18:08 40.65340 3.50077 22758 ft 419 kts 201°
2026-04-26 18:08 40.62629 3.48700 22132 ft 416 kts 201°
2026-04-26 18:09 40.59937 3.47333 21513 ft 413 kts 201°
2026-04-26 18:09 40.57266 3.45977 20912 ft 410 kts 201°
2026-04-26 18:09 40.54615 3.44633 20320 ft 407 kts 201°
2026-04-26 18:09 40.51980 3.43298 19743 ft 404 kts 201°
2026-04-26 18:10 40.49401 3.41992 19177 ft 401 kts 201°
2026-04-26 18:10 40.46803 3.40694 18651 ft 398 kts 198°
2026-04-26 18:10 40.44144 3.39780 18101 ft 393 kts 189°
2026-04-26 18:10 40.41441 3.39412 17492 ft 389 kts 181°
2026-04-26 18:11 40.38743 3.39518 16878 ft 387 kts 176°
2026-04-26 18:11 40.36065 3.39686 16347 ft 383 kts 176°
2026-04-26 18:11 40.33423 3.39843 15853 ft 378 kts 176°
2026-04-26 18:11 40.30846 3.39992 15418 ft 373 kts 176°
2026-04-26 18:12 40.28276 3.40138 14988 ft 368 kts 176°
2026-04-26 18:12 40.25735 3.40282 14570 ft 363 kts 176°
2026-04-26 18:12 40.23228 3.40425 14140 ft 359 kts 176°
2026-04-26 18:12 40.20731 3.40567 13735 ft 359 kts 176°
2026-04-26 18:13 40.18237 3.40709 13317 ft 357 kts 176°
2026-04-26 18:13 40.15773 3.40849 12904 ft 353 kts 176°
2026-04-26 18:13 40.13325 3.40989 12499 ft 352 kts 176°
2026-04-26 18:13 40.11709 3.41081 12228 ft 350 kts 176°
2026-04-26 18:14 40.08471 3.41264 11628 ft 346 kts 176°
2026-04-26 18:14 40.06074 3.41400 11271 ft 344 kts 176°
2026-04-26 18:14 40.03713 3.41534 10987 ft 344 kts 176°
2026-04-26 18:14 40.01333 3.41670 10716 ft 341 kts 177°
2026-04-26 18:15 39.98969 3.41658 10474 ft 340 kts 188°
2026-04-26 18:15 39.96759 3.40665 10221 ft 335 kts 211°
2026-04-26 18:15 39.94982 3.38775 9934 ft 327 kts 224°
2026-04-26 18:15 39.93375 3.36740 9569 ft 316 kts 224°
2026-04-26 18:16 39.91836 3.34771 9221 ft 303 kts 224°
2026-04-26 18:16 39.88924 3.31095 8708 ft 290 kts 223°
2026-04-26 18:16 39.87463 3.29274 8309 ft 291 kts 223°
2026-04-26 18:17 39.85997 3.27455 7931 ft 290 kts 223°
2026-04-26 18:17 39.84543 3.25652 7562 ft 288 kts 223°
2026-04-26 18:17 39.83122 3.23893 7328 ft 282 kts 223°
2026-04-26 18:17 39.81700 3.22134 7216 ft 284 kts 223°
2026-04-26 18:18 39.80270 3.20366 7133 ft 283 kts 223°
2026-04-26 18:18 39.78846 3.18606 7131 ft 282 kts 223°
2026-04-26 18:18 39.77421 3.16846 7129 ft 283 kts 222°
2026-04-26 18:18 39.75997 3.15087 7126 ft 283 kts 222°
2026-04-26 18:19 39.74571 3.13327 7131 ft 283 kts 222°
2026-04-26 18:19 39.73141 3.11561 6946 ft 284 kts 222°
2026-04-26 18:19 39.71709 3.09794 6555 ft 283 kts 223°
2026-04-26 18:19 39.70444 3.07869 6089 ft 278 kts 234°
2026-04-26 18:20 39.69437 3.05742 5655 ft 274 kts 238°
2026-04-26 18:20 39.68475 3.03660 5217 ft 271 kts 238°
2026-04-26 18:20 39.67506 3.01583 4768 ft 268 kts 238°
2026-04-26 18:20 39.66849 3.00185 4377 ft 268 kts 238°
2026-04-26 18:21 39.65565 2.97456 3733 ft 267 kts 238°
2026-04-26 18:21 39.64606 2.95421 3373 ft 261 kts 239°
2026-04-26 18:21 39.63685 2.93455 3163 ft 247 kts 238°
2026-04-26 18:21 39.62826 2.91621 3124 ft 231 kts 238°
2026-04-26 18:22 39.62019 2.89898 3068 ft 218 kts 238°
2026-04-26 18:22 39.61225 2.88204 2762 ft 221 kts 238°
2026-04-26 18:22 39.60430 2.86502 2347 ft 229 kts 238°
2026-04-26 18:22 39.59595 2.84708 1826 ft 231 kts 238°
2026-04-26 18:23 39.58783 2.82951 1337 ft 223 kts 238°
2026-04-26 18:23 39.58020 2.81294 1000 ft 204 kts 238°
2026-04-26 18:23 39.57319 2.79790 679 ft 187 kts 237°
2026-04-26 18:23 39.56649 2.78411 380 ft 173 kts 237°
2026-04-26 18:24 39.56039 2.77165 205 ft 154 kts 237°
2026-04-26 18:24 39.55496 2.76068 42 ft 135 kts 238°
2026-04-26 18:24 39.55064 2.75171 26 ft 83 kts 239°
2026-04-26 18:24 39.54804 2.74602 27 ft 66 kts 238°
2026-04-26 18:25 39.54603 2.74182 30 ft 38 kts 238°
2026-04-26 18:25 39.54552 2.73919 30 ft 29 kts 267°
2026-04-26 18:25 39.54551 2.73815 31 ft 0 kts 270°
2026-04-26 18:26 39.54551 2.73796 31 ft 5 kts 270°
2026-04-26 18:27 39.54554 2.73710 31 ft 13 kts 287°
2026-04-26 18:27 39.54624 2.73630 31 ft 14 kts 12°
2026-04-26 18:27 39.54690 2.73736 30 ft 17 kts 58°
2026-04-26 18:27 39.54756 2.73877 30 ft 20 kts 59°
2026-04-26 18:28 39.54833 2.74003 29 ft 15 kts
2026-04-26 18:28 39.54926 2.73942 28 ft 16 kts 330°
2026-04-26 18:28 39.55030 2.73858 27 ft 19 kts 327°
2026-04-26 18:28 39.55150 2.73763 28 ft 18 kts 329°
2026-04-26 18:29 39.55172 2.73665 25 ft 11 kts 235°
2026-04-26 18:29 39.55124 2.73576 24 ft 13 kts 235°
2026-04-26 18:29 39.55073 2.73473 27 ft 14 kts 238°
2026-04-26 18:29 39.55021 2.73433 27 ft 9 kts 164°
2026-04-26 18:30 39.55001 2.73441 27 ft 0 kts 163°